Terug naar catalogus

STARLINK-32717

ActiefCommunicatieVLEO
NORAD 62491·PAYLOAD·🇺🇸 United States

Gelanceerd Jan 6, 2025 vanaf Cape Canaveral Space Force Station

Loading…

Volgende Passages (komende 24 uur)

TLE

VersSource: CelesTrak SupGP

Epoch: Sep 15, 2026, 03:15 UTC

1 62491C 25003E   26258.13590278  .00016679  00000+0  60395-3 0  2582
2 62491  43.0020 298.9480 0001517 263.6149 198.7471 15.27579833    16

Volg STARLINK-32717 in realtime met AllMySat

Download on the App Store